Weather History for KBXK - December, 2013

Change the Weather History Date:

Tuesday, December 3, 2013

  Actual Average (KGYR) Record (KGYR)
Temperature  
Mean Temperature 55 °F -  
Max Temperature 68 °F 65 °F 77 °F (2003)
Min Temperature 42 °F 41 °F 32 °F (1996)
Degree Days  
Heating Degree Days 10    
Growing Degree Days 5 (Base 50)    
Moisture  
Dew Point 44 °F    
Average Humidity 69    
Maximum Humidity 100    
Minimum Humidity 35    
Precipitation  
Precipitation 0.00 in - - ()
Sea Level Pressure  
Sea Level Pressure 29.77 in    
Wind  
Wind Speed 4 mph (NE)    
Max Wind Speed 12 mph    
Max Gust Speed -    
Visibility 10 miles    
Events      
Averages and records for this station are not official NWS values.
T = Trace of Precipitation, MM = Missing Value Source: NWS Daily Summary

Daily Weather History Graph

Daily Weather History Graph

Search for Another Location

Airport or City:

Trip Planner

Search our weather history database for the weather conditions in past years. The results will help you decide how hot, cold, wet, or windy it might be!

Date:

Astronomy

Dec. 03, 2013 Rise Set
Actual Time 7:18 AM MST 5:22 PM MST
Civil Twilight 6:51 AM MST 5:49 PM MST
Nautical Twilight 6:20 AM MST 6:20 PM MST
Astronomical Twilight 5:50 AM MST 6:50 PM MST
Moon 7:52 AM MST (12/3) 6:29 PM MST (12/3)
Length of Visible Light 10h 58m
Length of Day
10h 04m
New Moon, 1% of the Moon is Illuminated
Dec 3
New Moon
Dec 9
First Quarter
Dec 17
Full
Dec 25
Last Quarter
Jan 1
New

Hourly Weather History & Observations

Time (MST) Temp. Windchill Dew Point Humidity Pressure Visibility Wind Dir Wind Speed Gust Speed Precip Events Conditions
12:15 AM 50.0 °F - 48.2 °F 94% 29.89 in 10.0 mi NNW 4.6 mph - N/A   Overcast
12:35 AM 50.0 °F - 48.2 °F 94% 29.88 in 10.0 mi North 6.9 mph - N/A   Overcast
12:55 AM 50.0 °F - 46.4 °F 87% 29.88 in 10.0 mi NNW 6.9 mph - N/A   Overcast
1:15 AM 50.0 °F - 48.2 °F 94% 29.87 in 10.0 mi NNW 4.6 mph - N/A   Overcast
1:35 AM 48.2 °F - 48.2 °F 100% 29.87 in 10.0 mi Calm Calm - N/A   Overcast
1:55 AM 48.2 °F - 48.2 °F 100% 29.86 in 10.0 mi NW 3.5 mph - N/A   Overcast
2:15 AM 48.2 °F - 48.2 °F 100% 29.87 in 10.0 mi NNW 4.6 mph - N/A   Mostly Cloudy
2:35 AM 48.2 °F - 48.2 °F 100% 29.87 in 10.0 mi North 6.9 mph - N/A   Mostly Cloudy
2:55 AM 48.2 °F - 48.2 °F 100% 29.86 in 10.0 mi North 8.1 mph - N/A   Mostly Cloudy
3:15 AM 48.2 °F - 48.2 °F 100% 29.85 in 10.0 mi NNE 4.6 mph - N/A   Partly Cloudy
3:35 AM 46.4 °F 45.2 °F 46.4 °F 100% 29.85 in 10.0 mi North 3.5 mph - N/A   Clear
3:55 AM 46.4 °F - 46.4 °F 100% 29.84 in 10.0 mi Calm Calm - N/A   Clear
4:15 AM 44.6 °F - 44.6 °F 100% 29.84 in 10.0 mi Calm Calm - N/A   Clear
4:35 AM 44.6 °F - 44.6 °F 100% 29.83 in 10.0 mi Calm Calm - N/A   Clear
4:55 AM 44.6 °F 41.4 °F 44.6 °F 100% 29.83 in 10.0 mi NNW 5.8 mph - N/A   Clear
5:15 AM 44.6 °F 43.1 °F 44.6 °F 100% 29.83 in 10.0 mi NNW 3.5 mph - N/A   Clear
5:35 AM 44.6 °F 42.2 °F 44.6 °F 100% 29.83 in 10.0 mi NNW 4.6 mph - N/A   Clear
5:55 AM 44.6 °F 42.2 °F 44.6 °F 100% 29.83 in 10.0 mi NNW 4.6 mph - N/A   Clear
6:15 AM 44.6 °F - 44.6 °F 100% 29.83 in 10.0 mi Calm Calm - N/A   Clear
6:35 AM 42.8 °F - 42.8 °F 100% 29.83 in 10.0 mi Calm Calm - N/A   Clear
6:55 AM 42.8 °F - 42.8 °F 100% 29.83 in 10.0 mi Calm Calm - N/A   Clear
7:15 AM 42.8 °F - 42.8 °F 100% 29.83 in 10.0 mi Calm Calm - N/A   Clear
7:35 AM 42.8 °F - 42.8 °F 100% 29.83 in 10.0 mi Calm Calm - N/A   Clear
7:55 AM 44.6 °F - 44.6 °F 100% 29.83 in 10.0 mi Calm Calm - N/A   Clear
8:15 AM 46.4 °F - 46.4 °F 100% 29.84 in 10.0 mi Calm Calm - N/A   Clear
8:35 AM 48.2 °F - 48.2 °F 100% 29.85 in 10.0 mi NW 4.6 mph - N/A   Clear
8:55 AM 50.0 °F - 48.2 °F 94% 29.85 in 10.0 mi Calm Calm - N/A   Clear
9:15 AM 51.8 °F - 48.2 °F 88% 29.84 in 10.0 mi Calm Calm - N/A   Clear
9:35 AM 53.6 °F - 48.2 °F 82% 29.85 in 10.0 mi Calm Calm - N/A   Clear
9:55 AM 57.2 °F - 48.2 °F 72% 29.85 in 10.0 mi East 11.5 mph - N/A   Clear
10:15 AM 59.0 °F - 46.4 °F 63% 29.83 in 10.0 mi East 11.5 mph - N/A   Clear
10:35 AM 59.0 °F - 44.6 °F 59% 29.84 in 10.0 mi East 10.4 mph - N/A   Clear
10:55 AM 60.8 °F - 44.6 °F 55% 29.83 in 10.0 mi East 11.5 mph - N/A   Clear
11:15 AM 62.6 °F - 44.6 °F 52% 29.82 in 10.0 mi East 11.5 mph - N/A   Clear
11:35 AM 62.6 °F - 44.6 °F 52% 29.82 in 10.0 mi East 10.4 mph - N/A   Clear
11:55 AM 64.4 °F - 42.8 °F 45% 29.80 in 10.0 mi ESE 10.4 mph - N/A   Clear
12:15 PM 64.4 °F - 42.8 °F 45% 29.79 in 10.0 mi ESE 10.4 mph - N/A   Clear
12:35 PM 64.4 °F - 42.8 °F 45% 29.78 in 10.0 mi ESE 10.4 mph - N/A   Clear
12:55 PM 64.4 °F - 42.8 °F 45% 29.78 in 10.0 mi ESE 8.1 mph - N/A   Clear
1:15 PM 66.2 °F - 42.8 °F 43% 29.76 in 10.0 mi East 4.6 mph - N/A   Clear
1:35 PM 66.2 °F - 41.0 °F 40% 29.75 in 10.0 mi SSE 4.6 mph - N/A   Clear
1:55 PM 66.2 °F - 41.0 °F 40% 29.74 in 10.0 mi SE 3.5 mph - N/A   Clear
2:15 PM 68.0 °F - 41.0 °F 37% 29.73 in 10.0 mi South 3.5 mph - N/A   Clear
2:35 PM 68.0 °F - 41.0 °F 37% 29.72 in 10.0 mi South 4.6 mph - N/A   Clear
2:55 PM 68.0 °F - 41.0 °F 37% 29.71 in 10.0 mi South 4.6 mph - N/A   Clear
3:15 PM 68.0 °F - 39.2 °F 35% 29.70 in 9.0 mi SSE 3.5 mph - N/A   Clear
3:35 PM 68.0 °F - 39.2 °F 35% 29.69 in 10.0 mi Calm Calm - N/A   Clear
3:55 PM 68.0 °F - 39.2 °F 35% 29.69 in 10.0 mi Calm Calm - N/A   Clear
4:15 PM 68.0 °F - 39.2 °F 35% 29.68 in 10.0 mi Calm Calm - N/A   Clear
4:35 PM 68.0 °F - 39.2 °F 35% 29.68 in 10.0 mi Calm Calm - N/A   Clear
4:55 PM 68.0 °F - 39.2 °F 35% 29.68 in 10.0 mi NE 4.6 mph - N/A   Clear
5:15 PM 66.2 °F - 41.0 °F 40% 29.67 in 10.0 mi NE 4.6 mph - N/A   Clear
5:35 PM 64.4 °F - 41.0 °F 42% 29.67 in 10.0 mi Calm Calm - N/A   Clear
5:55 PM 64.4 °F - 41.0 °F 42% 29.67 in 10.0 mi Calm Calm - N/A   Clear
6:15 PM 62.6 °F - 41.0 °F 45% 29.67 in 10.0 mi NE 4.6 mph - N/A   Clear
6:35 PM 60.8 °F - 42.8 °F 52% 29.66 in 10.0 mi NNE 4.6 mph - N/A   Clear
6:55 PM 59.0 °F - 41.0 °F 51% 29.67 in 10.0 mi NE 3.5 mph - N/A   Clear
7:15 PM 57.2 °F - 44.6 °F 63% 29.67 in 10.0 mi Calm Calm - N/A   Clear
7:35 PM 57.2 °F - 44.6 °F 63% 29.67 in 10.0 mi Calm Calm - N/A   Clear
7:55 PM 59.0 °F - 41.0 °F 51% 29.66 in 10.0 mi East 5.8 mph - N/A   Clear
8:15 PM 57.2 °F - 41.0 °F 55% 29.67 in 10.0 mi ENE 4.6 mph - N/A   Clear
8:35 PM 57.2 °F - 42.8 °F 59% 29.67 in 10.0 mi East 5.8 mph - N/A   Clear
8:55 PM 57.2 °F - 44.6 °F 63% 29.67 in 10.0 mi Calm Calm - N/A   Clear
9:15 PM 57.2 °F - 42.8 °F 59% 29.68 in 10.0 mi Calm Calm - N/A   Unknown
9:35 PM 57.2 °F - 44.6 °F 63% 29.68 in 10.0 mi Calm Calm - N/A   Unknown
9:55 PM 57.2 °F - 42.8 °F 59% 29.69 in 10.0 mi NE 4.6 mph - N/A   Clear
10:15 PM 55.4 °F - 44.6 °F 67% 29.69 in 10.0 mi Calm Calm - N/A   Clear
10:35 PM 55.4 °F - 42.8 °F 63% 29.70 in 10.0 mi Calm Calm - N/A   Partly Cloudy
10:55 PM 57.2 °F - 41.0 °F 55% 29.69 in 10.0 mi West 3.5 mph - N/A   Partly Cloudy
11:15 PM 59.0 °F - 41.0 °F 51% 29.70 in 10.0 mi West 4.6 mph - N/A   Partly Cloudy
11:35 PM 57.2 °F - 41.0 °F 55% 29.70 in 10.0 mi Calm Calm - N/A   Clear
11:55 PM 55.4 °F - 41.0 °F 58% 29.70 in 10.0 mi Calm Calm - N/A   Clear